Regional Weather Roundup
Issued by NWS Kansas City/Pleasant Hill, MO

Home | Current Version | Previous Version | Text Only | Print | Product List | Glossary On
Versions: 1 2 3 4 5 6 7 8 9 10 11 12 13 14 15 16 17 18 19 20 21 22 23 24 25 26 27 28
000
ASUS43 KEAX 150610
RWREAX

WEATHER ROUNDUP FOR EASTERN KANSAS AND NORTHWEST MISSOURI
NATIONAL WEATHER SERVICE KANSAS CITY/PLEASANT HILL MO
1200 AM CST FRI DEC 15 2017

KSZ040-057-103>105-MOZ028-029-037-043-150700-
...KANSAS CITY METROPOLITAN AREA...

CITY           SKY/WX    TMP DP  RH WIND       PRES   REMARKS
K.C. INTL      CLOUDY    32  24  72 W6        30.12S WCI  26
6HR MIN TEMP:  32; 6HR MAX TEMP:  39;

K.C. DOWNTOWN  CLOUDY    36  26  67 CALM      30.13S
6HR MIN TEMP:  36; 6HR MAX TEMP:  41;

LEES SUMMIT    CLOUDY    32  24  72 SW5       30.12S WCI  27
6HR MIN TEMP:  32; 6HR MAX TEMP:  39;

OLATHE - IXD   CLOUDY    35  27  72 NW7       30.13S WCI  29
6HR MIN TEMP:  34; 6HR MAX TEMP:  38;

OLATHE - OJC   PTCLDY    35  26  69 NW7       30.12S WCI  29
6HR MIN TEMP:  34; 6HR MAX TEMP:  37;

LAWRENCE       CLOUDY    36  29  75 W5        30.14S WCI  32

$$

MOZ001>008-011>017-020>025-030>033-038>040-044>046-053-054-150700-
...NORTHERN AND CENTRAL MISSOURI...

CITY           SKY/WX    TMP DP  RH WIND       PRES   REMARKS
ST. JOSEPH     CLOUDY    28  25  88 CALM      30.14S
6HR MIN TEMP:  26; 6HR MAX TEMP:  39;

MOSBY          MOCLDY    28  25  86 CALM      30.13F
WARRENSBURG    MOCLDY    30  27  86 CALM      30.12F
WHITEMAN AFB   MOCLDY    30  23  76 N3        30.08F
6HR MIN TEMP:  30; 6HR MAX TEMP:  35;

CLINTON        CLOUDY    32  27  80 CALM      30.13F
SEDALIA        CLOUDY    33  26  75 S3        30.12F
6HR MIN TEMP:  32; 6HR MAX TEMP:  36;

WARSAW         NOT AVBL
CHILLICOTHE      N/A     24  21  88 CALM      30.13F
6HR MIN TEMP:  23; 6HR MAX TEMP:  35;

KIRKSVILLE     PTCLDY    27  25  92 SW6       30.09F WCI  20
6HR MIN TEMP:  27; 6HR MAX TEMP:  31;


$$

MOZ041-047>049-056>058-063>065-088>090-097-150700-
...EASTERN AND SOUTHERN MISSOURI...

CITY           SKY/WX    TMP DP  RH WIND       PRES   REMARKS
ST. LOUIS INTL CLOUDY    28  19  69 W5        30.11F WCI  23
6HR MIN TEMP:  28; 6HR MAX TEMP:  31;

SPIRIT OF STL  CLOUDY    26  21  81 CALM      30.12F
COLUMBIA       CLOUDY    30  23  75 SW5       30.11F WCI  25
JEFFERSON CITY CLOUDY    32  23  69 CALM      30.13F
ROLLA          CLOUDY    28  23  81 CALM      30.10F
OSAGE BEACH    CLOUDY    32  25  75 CALM      30.13F
SPRINGFIELD    CLOUDY    31  24  75 SW3       30.10F
BRANSON        CLOUDY    32  25  74 CALM      30.13S
JOPLIN         CLOUDY    35  28  75 SW3       30.14S
WEST PLAINS    CLOUDY    31  21  66 W3        30.11S

$$

IAZ060-094-KSZ022-034>040-054-083-096-NEZ052-066-093-150700-
...KANSAS...SOUTHEAST NEBRASKA AND IOWA...

CITY           SKY/WX    TMP DP  RH WIND       PRES   REMARKS
TOPEKA         CLOUDY    37  33  85 W8        30.15S WCI  31
6HR MIN TEMP:  37; 6HR MAX TEMP:  44;

MANHATTAN      CLOUDY    39  33  79 VRB5      30.17F
EMPORIA        CLOUDY    38  31  76 NW14      30.16S WCI  30
CHANUTE        CLOUDY    40  30  67 NW5       30.14F
WICHITA        MOCLDY    39  33  79 NW12      30.19S WCI  32
OMAHA          CLOUDY    36  26  67 NW15      30.13R WCI  27
LINCOLN        CLOUDY    36  28  73 NW12      30.16S WCI  28
FALLS CITY     CLOUDY    37  30  75 NW9       30.13S WCI  30
LAMONI         CLOUDY    31  24  75 W9        30.08F WCI  23
DES MOINES     CLOUDY    32  24  72 W3        30.06F

$$





USA.gov is the U.S. government's official web portal to all federal, state and local government web resources and services.